Change the Weather History Date:

Sunday, December 30, 2012

  Actual Average (KHUF) Record (KHUF)
Temperature  
Mean Temperature 17 °F 29 °F  
Max Temperature 30 °F 37 °F 61 °F (1971)
Min Temperature 4 °F 21 °F -2 °F (1963)
Degree Days  
Heating Degree Days 48 36  
Month to date heating degree days 997  
Since 1 July heating degree days 2075  
Cooling Degree Days 0 0  
Month to date cooling degree days 0  
Year to date cooling degree days 993  
Moisture  
Dew Point 16 °F    
Average Humidity 83    
Maximum Humidity 93    
Minimum Humidity 70    
Precipitation  
Precipitation 0.00 in 0.13 in 2.31 in (1990)
Month to date precipitation 2.93  
Year to date precipitation 45.04  
Sea Level Pressure  
Sea Level Pressure 30.35 in    
Wind  
Wind Speed 7 mph (SSW)    
Max Wind Speed 17 mph    
Max Gust Speed 23 mph    
Visibility 10 miles    
Events      
T = Trace of Precipitation, MM = Missing Value Source: NWS Daily Summary

Daily Weather History Graph

Daily Weather History Graph

Search for Another Location

Airport or City:

Trip Planner

Search our weather history database for the weather conditions in past years. The results will help you decide how hot, cold, wet, or windy it might be!

Date:

Astronomy

Dec. 30, 2012 Rise Set
Actual Time 7:11 AM CST 4:35 PM CST
Civil Twilight 6:41 AM CST 5:06 PM CST
Nautical Twilight 6:07 AM CST 5:39 PM CST
Astronomical Twilight 5:34 AM CST 6:12 PM CST
Moon 7:06 PM CST (12/30) 8:20 AM CST (12/30)
Length of Visible Light 10h 24m
Length of Day
9h 24m
Waning Gibbous, 95% of the Moon is Illuminated
Dec 30
Waning Gibbous
Jan 4
Last Quarter
Jan 11
New
Jan 18
First Quarter
Jan 26
Full

Hourly Weather History & Observations

Time (CST) Temp. Windchill Dew Point Humidity Pressure Visibility Wind Dir Wind Speed Gust Speed Precip Events Conditions
12:15 AM 12.9 °F 3.8 °F 10.2 °F 89% 30.29 in - West 5.8 mph - N/A   Unknown
12:35 AM 13.3 °F 3.0 °F 10.8 °F 90% 30.30 in - West 6.9 mph - N/A   Unknown
12:55 AM 14.4 °F 3.3 °F 11.5 °F 88% 30.31 in - West 8.1 mph - N/A   Unknown
1:15 AM 14.0 °F 2.9 °F 11.3 °F 89% 30.32 in - WSW 8.1 mph - N/A   Unknown
1:35 AM 13.8 °F 6.2 °F 10.8 °F 88% 30.33 in - WSW 4.6 mph - N/A   Unknown
1:55 AM 11.3 °F 3.3 °F 8.6 °F 89% 30.33 in - SW 4.6 mph - N/A   Unknown
2:15 AM 8.2 °F -1.8 °F 5.9 °F 90% 30.34 in - SW 5.8 mph - N/A   Unknown
2:35 AM 9.1 °F 2.6 °F 6.8 °F 90% 30.35 in - SW 3.5 mph - N/A   Unknown
2:55 AM 8.2 °F 1.6 °F 6.1 °F 91% 30.35 in - SW 3.5 mph - N/A   Unknown
3:15 AM 5.7 °F -1.3 °F 3.0 °F 89% 30.35 in - SSW 3.5 mph - N/A   Unknown
3:35 AM 5.2 °F - 2.3 °F 88% 30.36 in - Calm Calm - N/A   Unknown
3:55 AM 4.3 °F -2.9 °F 1.6 °F 89% 30.36 in - SSW 3.5 mph - N/A   Unknown
4:15 AM 5.7 °F -1.3 °F 3.0 °F 89% 30.36 in - SSW 3.5 mph - N/A   Unknown
4:35 AM 6.8 °F - 4.1 °F 89% 30.37 in - Calm Calm - N/A   Unknown
4:55 AM 5.2 °F -1.9 °F 2.3 °F 88% 30.37 in - SW 3.5 mph - N/A   Unknown
5:15 AM 8.8 °F - 6.6 °F 91% 30.37 in - Calm Calm - N/A   Unknown
5:35 AM 9.1 °F - 6.6 °F 89% 30.38 in - Calm Calm - N/A   Unknown
5:55 AM 8.2 °F - 5.5 °F 89% 30.37 in - Calm Calm - N/A   Unknown
6:15 AM 7.9 °F - 5.4 °F 89% 30.38 in - Calm Calm - N/A   Unknown
6:35 AM 7.5 °F - 4.6 °F 88% 30.38 in - Calm Calm - N/A   Unknown
6:55 AM 8.2 °F - 5.7 °F 89% 30.39 in - Calm Calm - N/A   Unknown
7:15 AM 8.6 °F - 5.9 °F 89% 30.39 in - Calm Calm - N/A   Unknown
7:35 AM 7.9 °F - 5.4 °F 89% 30.40 in - Calm Calm - N/A   Unknown
7:55 AM 10.4 °F - 7.9 °F 90% 30.40 in - Calm Calm - N/A   Unknown
8:15 AM 11.1 °F - 8.8 °F 90% 30.40 in - Calm Calm - N/A   Unknown
8:35 AM 11.3 °F 5.1 °F 8.6 °F 89% 30.41 in - SSW 3.5 mph - N/A   Unknown
8:55 AM 14.7 °F 5.9 °F 12.7 °F 92% 30.41 in - SSW 5.8 mph - N/A   Unknown
9:15 AM 16.7 °F 11.2 °F 14.7 °F 92% 30.41 in - SSE 3.5 mph - N/A   Unknown
9:35 AM 17.4 °F 9.1 °F 15.6 °F 93% 30.42 in 10.0 mi South 5.8 mph - N/A   Clear
9:55 AM 19.2 °F 14.1 °F 17.4 °F 93% 30.43 in 7.0 mi South 3.5 mph - N/A   Clear
10:15 AM 21.4 °F 11.1 °F 19.4 °F 92% 30.43 in 7.0 mi SSW 9.2 mph - N/A   Clear
10:35 AM 23.0 °F 13.9 °F 18.5 °F 83% 30.43 in 10.0 mi SSW 8.1 mph - N/A   Clear
10:55 AM 24.8 °F 15.3 °F 19.2 °F 79% 30.42 in 10.0 mi SSW 9.2 mph - N/A   Clear
11:15 AM 26.4 °F 18.9 °F 20.1 °F 77% 30.41 in 10.0 mi SSW 6.9 mph - N/A   Clear
11:35 AM 27.5 °F 16.3 °F 20.3 °F 74% 30.40 in 10.0 mi SSW 13.8 mph - N/A   Clear
11:55 AM 28.2 °F 19.5 °F 20.3 °F 72% 30.39 in 10.0 mi South 9.2 mph - N/A   Clear
12:15 PM 28.9 °F 21.1 °F 20.3 °F 70% 30.39 in 10.0 mi South 8.1 mph - N/A   Clear
12:35 PM 29.3 °F 21.5 °F 21.0 °F 71% 30.37 in 10.0 mi South 8.1 mph - N/A   Clear
12:55 PM 29.3 °F 21.5 °F 21.6 °F 73% 30.37 in 10.0 mi South 8.1 mph - N/A   Clear
1:15 PM 30.2 °F 22.6 °F 21.6 °F 70% 30.36 in 10.0 mi South 8.1 mph - N/A   Clear
1:35 PM 30.2 °F 22.6 °F 22.1 °F 72% 30.36 in 10.0 mi SSW 8.1 mph - N/A   Clear
1:55 PM 29.3 °F 20.8 °F 21.7 °F 73% 30.35 in 10.0 mi South 9.2 mph - N/A   Clear
2:15 PM 28.4 °F 19.1 °F 21.2 °F 74% 30.34 in 10.0 mi South 10.4 mph - N/A   Clear
2:35 PM 28.2 °F 18.9 °F 21.4 °F 76% 30.34 in 10.0 mi South 10.4 mph - N/A   Clear
2:55 PM 28.9 °F 19.2 °F 21.4 °F 73% 30.34 in 10.0 mi South 11.5 mph - N/A   Clear
3:15 PM 29.5 °F 19.3 °F 22.1 °F 74% 30.34 in 10.0 mi South 12.7 mph - N/A   Clear
3:35 PM 29.3 °F 19.1 °F 21.2 °F 72% 30.34 in 10.0 mi South 12.7 mph - N/A   Clear
3:55 PM 28.9 °F 19.2 °F 20.7 °F 71% 30.34 in 10.0 mi South 11.5 mph - N/A   Clear
4:15 PM 28.2 °F 18.9 °F 20.3 °F 72% 30.35 in 10.0 mi South 10.4 mph - N/A   Clear
4:35 PM 27.3 °F 17.1 °F 20.3 °F 75% 30.35 in 10.0 mi South 11.5 mph - N/A   Clear
4:55 PM 27.1 °F 16.9 °F 20.1 °F 75% 30.35 in 10.0 mi South 11.5 mph - N/A   Clear
5:15 PM 27.0 °F 17.3 °F 19.9 °F 75% 30.35 in 10.0 mi South 10.4 mph - N/A   Clear
5:35 PM 25.7 °F 15.7 °F 19.4 °F 77% 30.34 in 10.0 mi South 10.4 mph - N/A   Clear
5:55 PM 25.3 °F 16.0 °F 19.4 °F 78% 30.34 in 10.0 mi South 9.2 mph - N/A   Clear
6:15 PM 25.7 °F 15.7 °F 19.9 °F 79% 30.33 in 10.0 mi South 10.4 mph - N/A   Clear
6:35 PM 25.9 °F 15.3 °F 20.5 °F 80% 30.34 in 10.0 mi South 11.5 mph - N/A   Clear
6:55 PM 26.1 °F 15.6 °F 20.3 °F 79% 30.34 in 10.0 mi South 11.5 mph - N/A   Clear
7:15 PM 24.8 °F 13.4 °F 19.8 °F 81% 30.33 in 10.0 mi South 12.7 mph - N/A   Clear
7:35 PM 23.9 °F 11.7 °F 19.8 °F 84% 30.32 in 10.0 mi South 13.8 mph - N/A   Clear
7:55 PM 23.9 °F 12.9 °F 19.6 °F 84% 30.32 in 10.0 mi South 11.5 mph - N/A   Clear
8:15 PM 23.9 °F 12.3 °F 20.3 °F 86% 30.30 in 10.0 mi South 12.7 mph - N/A   Clear
8:35 PM 24.3 °F 12.2 °F 20.7 °F 86% 30.29 in 10.0 mi South 13.8 mph - N/A   Clear
8:55 PM 24.8 °F 12.9 °F 21.6 °F 87% 30.29 in 10.0 mi South 13.8 mph - N/A   Clear
9:15 PM 25.7 °F 13.1 °F 22.1 °F 86% 30.28 in 10.0 mi South 16.1 mph - N/A   Clear
9:35 PM 26.2 °F 14.2 °F 22.8 °F 87% 30.27 in 10.0 mi South 15.0 mph 21.9 mph N/A   Clear
9:55 PM 27.0 °F 15.2 °F 23.0 °F 85% 30.28 in 10.0 mi South 15.0 mph - N/A   Clear
10:15 PM 27.0 °F 16.1 °F 22.8 °F 84% 30.27 in 10.0 mi South 12.7 mph - N/A   Clear
10:35 PM 27.3 °F 17.1 °F 23.5 °F 86% 30.26 in 10.0 mi South 11.5 mph - N/A   Clear
10:55 PM 29.5 °F 18.4 °F 24.8 °F 83% 30.24 in 10.0 mi South 15.0 mph - N/A   Clear
11:15 PM 29.8 °F 18.0 °F 24.8 °F 81% 30.24 in 10.0 mi South 17.3 mph - N/A   Clear
11:35 PM 30.2 °F 18.5 °F 25.0 °F 81% 30.24 in 10.0 mi South 17.3 mph 23.0 mph N/A   Clear
11:55 PM 30.2 °F 18.5 °F 25.3 °F 82% 30.23 in 10.0 mi South 17.3 mph - N/A   Clear